TimeEST,TemperatureF,Dew PointF,Humidity,Sea Level PressureIn,VisibilityMPH,Wind Direction,Wind SpeedMPH,Gust SpeedMPH,PrecipitationIn,Events,Conditions,WindDirDegrees,DateUTC
12:54 AM,36.0,34.0,93,30.01,4.0,NNE,12.7,-,0.10,Rain,Rain,30,2013-02-08 05:54:00
1:54 AM,35.1,34.0,96,29.97,5.0,NNE,10.4,-,0.09,Rain,Light Rain,30,2013-02-08 06:54:00
2:54 AM,35.1,34.0,96,29.94,7.0,NNE,6.9,16.1,0.03,Rain,Light Rain,20,2013-02-08 07:54:00
3:54 AM,35.1,34.0,96,29.91,7.0,NNE,12.7,19.6,0.00,,Overcast,20,2013-02-08 08:54:00
4:54 AM,35.1,34.0,96,29.91,7.0,North,10.4,-,N/A,,Overcast,10,2013-02-08 09:54:00
5:54 AM,35.1,34.0,96,29.90,7.0,NNE,10.4,-,0.01,,Overcast,20,2013-02-08 10:54:00
6:54 AM,36.0,34.0,93,29.91,9.0,North,8.1,-,N/A,,Overcast,10,2013-02-08 11:54:00
8:01 AM,35.6,35.6,100,29.89,10.0,North,8.1,-,N/A,,Overcast,360,2013-02-08 13:01:00
8:54 AM,37.9,36.0,93,29.91,10.0,North,5.8,-,N/A,,Overcast,350,2013-02-08 13:54:00
9:54 AM,41.0,37.0,86,29.90,10.0,North,4.6,-,N/A,,Mostly Cloudy,360,2013-02-08 14:54:00
10:25 AM,44.6,39.2,81,29.88,10.0,North,5.8,-,N/A,,Mostly Cloudy,350,2013-02-08 15:25:00
10:54 AM,45.0,39.0,80,29.88,10.0,Calm,Calm,-,N/A,,Mostly Cloudy,0,2013-02-08 15:54:00
11:52 AM,46.4,39.2,76,29.87,10.0,West,6.9,-,N/A,,Mostly Cloudy,280,2013-02-08 16:52:00
11:54 AM,46.0,39.9,79,29.88,10.0,West,9.2,-,N/A,,Mostly Cloudy,280,2013-02-08 16:54:00
12:46 PM,48.2,42.8,82,29.85,10.0,WSW,8.1,-,N/A,,Mostly Cloudy,250,2013-02-08 17:46:00
12:54 PM,50.0,41.0,71,29.85,10.0,WSW,10.4,-,N/A,,Mostly Cloudy,240,2013-02-08 17:54:00
1:54 PM,52.0,42.1,69,29.84,10.0,West,8.1,18.4,N/A,,Mostly Cloudy,270,2013-02-08 18:54:00
2:54 PM,54.0,44.1,69,29.83,10.0,West,10.4,-,N/A,,Mostly Cloudy,280,2013-02-08 19:54:00
3:54 PM,55.0,37.0,51,29.83,10.0,WNW,18.4,26.5,N/A,,Scattered Clouds,300,2013-02-08 20:54:00
4:54 PM,55.0,33.1,43,29.85,10.0,WNW,15.0,23.0,N/A,,Scattered Clouds,290,2013-02-08 21:54:00
5:54 PM,53.1,27.0,37,29.88,10.0,NW,15.0,25.3,N/A,,Partly Cloudy,320,2013-02-08 22:54:00
6:54 PM,46.9,25.0,42,29.95,10.0,NW,20.7,28.8,N/A,,Clear,320,2013-02-08 23:54:00
7:54 PM,44.1,25.0,47,29.99,10.0,NNW,15.0,25.3,N/A,,Clear,330,2013-02-09 00:54:00
8:54 PM,42.1,26.1,53,30.02,10.0,NNW,15.0,21.9,N/A,,Clear,330,2013-02-09 01:54:00
9:54 PM,41.0,25.0,53,30.05,10.0,WNW,9.2,-,N/A,,Scattered Clouds,300,2013-02-09 02:54:00
10:54 PM,39.9,26.1,58,30.05,10.0,NW,17.3,23.0,N/A,,Partly Cloudy,310,2013-02-09 03:54:00
11:54 PM,37.9,25.0,60,30.06,10.0,NW,16.1,-,N/A,,Clear,310,2013-02-09 04:54:00